Marathon, FL

4:55 PM EST on February 06, 2016 (GMT -0500)
Florida Keys Marathon

Weather History for KMTH - May, 2014

Change the Weather History Date:

Saturday, May 10, 2014

  Actual Average Record
Temperature  
Mean Temperature 84 °F 80 °F  
Max Temperature 88 °F 85 °F 91 °F (1998)
Min Temperature 79 °F 75 °F 70 °F (2007)
Degree Days  
Heating Degree Days 0 0  
Month to date heating degree days 0 0  
Since 1 July heating degree days 35 81  
Cooling Degree Days 19 15  
Month to date cooling degree days 177 145  
Year to date cooling degree days 1436 1181  
Growing Degree Days 34 (Base 50)    
Moisture  
Dew Point 72 °F    
Average Humidity 67    
Maximum Humidity 74    
Minimum Humidity 59    
Precipitation  
Precipitation T in 0.13 in 0.10 in (1999)
Month to date precipitation 0.14 1.01  
Year to date precipitation 5.65 9.60  
Snow  
Snow 0.00 in - - ()
Month to date snowfall 0.0  
Since 1 July snowfall 0.0  
Snow Depth 0.00 in    
Sea Level Pressure  
Sea Level Pressure 30.08 in    
Wind  
Wind Speed 11 mph (ESE)    
Max Wind Speed 16 mph    
Max Gust Speed 27 mph    
Visibility 10 miles    
Events Rain    
T = Trace of Precipitation, MM = Missing Value Source: NWS Daily Summary

Daily Weather History Graph

Daily Weather History Graph

Search for Another Location

Airport or City:

Trip Planner

Search our weather history database for the weather conditions in past years. The results will help you decide how hot, cold, wet, or windy it might be!

Date:

Astronomy

May. 10, 2014 Rise Set
Actual Time 6:42 AM EDT 7:58 PM EDT
Civil Twilight 6:18 AM EDT 8:22 PM EDT
Nautical Twilight 5:49 AM EDT 8:52 PM EDT
Astronomical Twilight 5:19 AM EDT 9:22 PM EDT
Moon 4:17 PM EDT (5/10) 3:47 AM EDT (5/10)
Length of Visible Light 14h 04m
Length of Day
13h 15m
Waxing Gibbous, 82% of the Moon is Illuminated
May 10
Waxing Gibbous
May 14
Full
May 21
Last Quarter
May 28
New
Jun 5
First Quarter

Hourly Weather History & Observations

Time (EDT) Temp. Heat Index Dew Point Humidity Pressure Visibility Wind Dir Wind Speed Gust Speed Precip Events Conditions
1:53 AM 80.1 °F 83.6 °F 71.1 °F 74% 30.05 in 10.0 mi ESE 15.0 mph 24.2 mph N/A   Clear
2:53 AM 80.1 °F 83.2 °F 70.0 °F 71% 30.04 in 10.0 mi ESE 13.8 mph 27.6 mph N/A   Clear
3:53 AM 79.0 °F - 69.1 °F 72% 30.04 in 10.0 mi ESE 11.5 mph 20.7 mph N/A   Clear
4:53 AM 79.0 °F - 69.1 °F 72% 30.04 in 10.0 mi ESE 13.8 mph 23.0 mph N/A   Clear
5:53 AM 79.0 °F - 69.1 °F 72% 30.05 in 10.0 mi ESE 11.5 mph 24.2 mph N/A   Clear
7:53 AM 80.1 °F 83.2 °F 70.0 °F 71% 30.09 in 10.0 mi ESE 11.5 mph 19.6 mph N/A   Clear
8:53 AM 82.0 °F 86.3 °F 71.1 °F 69% 30.12 in 10.0 mi SE 9.2 mph - N/A   Clear
9:53 AM 84.0 °F 89.6 °F 72.0 °F 67% 30.12 in 10.0 mi SE 8.1 mph - N/A   Partly Cloudy
10:38 AM 82.0 °F 88.6 °F 75.0 °F 79% 30.13 in 8.0 mi ESE 10.4 mph - 0.00 in Rain Light Rain
10:53 AM 82.9 °F 89.4 °F 73.9 °F 74% 30.13 in 9.0 mi ESE 8.1 mph 17.3 mph 0.00 in   Overcast
11:07 AM 84.9 °F 92.1 °F 73.9 °F 69% 30.13 in 10.0 mi SE 9.2 mph 17.3 mph N/A   Scattered Clouds
11:53 AM 86.0 °F 93.0 °F 73.0 °F 65% 30.12 in 10.0 mi SE 9.2 mph - N/A   Clear
12:53 PM 87.1 °F 93.6 °F 72.0 °F 61% 30.10 in 10.0 mi SE 11.5 mph 20.7 mph N/A   Clear
1:53 PM 87.1 °F 93.6 °F 72.0 °F 61% 30.09 in 10.0 mi SE 11.5 mph 18.4 mph N/A   Clear
2:53 PM 88.0 °F 94.7 °F 72.0 °F 59% 30.07 in 10.0 mi ESE 12.7 mph 21.9 mph N/A   Clear
3:53 PM 87.1 °F 93.6 °F 72.0 °F 61% 30.05 in 10.0 mi SE 9.2 mph 18.4 mph N/A   Clear
4:53 PM 84.9 °F 91.4 °F 73.0 °F 67% 30.04 in 10.0 mi ESE 10.4 mph 18.4 mph N/A   Scattered Clouds
5:53 PM 82.9 °F 88.8 °F 73.0 °F 72% 30.04 in 10.0 mi ESE 9.2 mph 18.4 mph N/A   Scattered Clouds
6:53 PM 82.0 °F 87.4 °F 73.0 °F 74% 30.04 in 10.0 mi East 11.5 mph 17.3 mph N/A   Partly Cloudy
7:53 PM 81.0 °F 85.2 °F 72.0 °F 74% 30.05 in 10.0 mi ESE 8.1 mph 18.4 mph N/A   Clear
8:53 PM 81.0 °F 85.2 °F 72.0 °F 74% 30.06 in 10.0 mi ESE 10.4 mph 17.3 mph N/A   Clear
9:53 PM 80.1 °F 83.8 °F 72.0 °F 76% 30.08 in 10.0 mi East 10.4 mph - N/A   Partly Cloudy
10:53 PM 80.1 °F 83.8 °F 72.0 °F 76% 30.08 in 10.0 mi East 10.4 mph 18.4 mph N/A   Clear
11:53 PM 80.1 °F 83.8 °F 72.0 °F 76% 30.07 in 10.0 mi ESE 8.1 mph 17.3 mph N/A   Partly Cloudy